EW6810 Weather Reports


Display with metric or nautical units.
time (UTC)temp
F
wind
direction
speed
MPH
gust
MPH
rain 1hr
in
rain 24hr
in
rain mn
in
humidity
%
barometer
mb
20260507214532 63 172 1.0 6.0 0.00 0.00 0.00 67 1015.0
20260507214028 63 147 1.0 6.0 0.00 0.00 0.00 68 1015.0
20260507213528 62 140 1.0 5.0 0.00 0.00 0.00 69 1015.1
20260507213029 63 57 1.0 5.0 0.00 0.00 0.00 67 1015.1
20260507212526 63 157 1.0 6.0 0.00 0.00 0.00 67 1015.2
20260507212024 62 191 2.0 8.0 0.00 0.00 0.00 69 1015.2
20260507211525 61 19 1.0 8.0 0.00 0.00 0.00 69 1015.3
20260507211023 62 175 2.0 5.0 0.00 0.00 0.00 69 1015.3
20260507210525 62 169 2.0 6.0 0.00 0.00 0.00 71 1015.4
20260507210023 61 176 0.0 6.0 0.00 0.00 0.00 71 1015.4
20260507205520 60 157 2.0 5.0 0.00 0.00 0.00 74 1015.6
20260507205022 60 353 0.0 3.0 0.00 0.00 0.00 76 1015.6
20260507204519 59 154 1.0 6.0 0.00 0.00 0.00 76 1015.7
20260507204017 59 132 2.0 6.0 0.00 0.00 0.00 75 1015.7
20260507203516 60 17 0.0 5.0 0.00 0.00 0.00 76 1015.8
20260507203014 60 17 1.0 5.0 0.00 0.00 0.00 74 1016.0
20260507202513 60 280 1.0 4.0 0.00 0.00 0.00 77 1015.9
20260507202012 59 229 1.0 6.0 0.00 0.00 0.00 77 1016.0
20260507201515 58 229 0.0 3.0 0.00 0.00 0.00 78 1016.1
20260507201010 58 231 0.0 4.0 0.00 0.00 0.00 77 1016.1
20260507200509 57 132 1.0 4.0 0.00 0.00 0.00 79 1016.2
20260507200009 57 164 1.0 4.0 0.00 0.00 0.00 78 1016.2
20260507195507 57 154 0.0 3.0 0.00 0.00 0.00 80 1016.3
20260507195007 56 153 1.0 7.0 0.00 0.00 0.00 80 1016.2
20260507194507 56 44 0.0 7.0 0.00 0.00 0.00 81 1016.3
20260507194004 56 32 0.0 3.0 0.00 0.00 0.00 83 1016.3
20260507193505 55 153 0.0 3.0 0.00 0.00 0.00 83 1016.5
20260507193003 55 170 0.0 3.0 0.00 0.00 0.00 83 1016.5
20260507192502 55 170 0.0 4.0 0.00 0.00 0.00 84 1016.5
20260507192004 55 50 1.0 4.0 0.00 0.00 0.00 85 1016.5
20260507191502 55 111 0.0 3.0 0.00 0.00 0.00 84 1016.5
20260507191002 55 125 0.0 5.0 0.00 0.00 0.00 85 1016.5
20260507190502 55 46 0.0 5.0 0.00 0.00 0.00 84 1016.5
20260507190002 55 63 1.0 5.0 0.00 0.00 0.00 86 1016.5
20260507185500 54 209 0.0 4.0 0.00 0.00 0.00 86 1016.6
20260507185000 54 209 0.0 4.0 0.00 0.00 0.00 86 1016.6
20260507184502 54 143 0.0 3.0 0.00 0.00 0.00 86 1016.6
20260507184100 54 142 1.0 3.0 0.00 0.00 0.00 86 1016.6
20260507183602 54 46 0.0 3.0 0.00 0.00 0.00 87 1016.6
20260507183106 54 101 0.0 4.0 0.00 0.00 0.00 86 1016.6
20260507182600 54 66 1.0 4.0 0.00 0.00 0.00 86 1016.6
20260507182202 54 255 0.0 3.0 0.00 0.00 0.00 85 1016.7
20260507181559 54 129 0.0 3.0 0.00 0.00 0.00 85 1016.7
20260507181059 54 130 0.0 3.0 0.00 0.00 0.00 84 1016.7
20260507180602 54 92 0.0 3.0 0.00 0.00 0.00 85 1016.8
20260507180058 54 92 1.0 3.0 0.00 0.00 0.00 84 1016.8
20260507175600 55 148 0.0 3.0 0.00 0.00 0.00 85 1016.8
20260507175057 54 188 1.0 3.0 0.00 0.00 0.00 87 1016.9
20260507174606 54 140 0.0 3.0 0.00 0.00 0.00 87 1016.9
20260507174059 54 136 1.0 3.0 0.00 0.00 0.00 88 1016.9
20260507173557 54 14 0.0 3.0 0.00 0.00 0.00 89 1017.0
20260507173100 53 128 1.0 3.0 0.00 0.00 0.00 90 1017.0
20260507172556 52 101 0.0 2.0 0.00 0.00 0.00 90 1017.0
20260507172053 52 101 0.0 2.0 0.00 0.00 0.00 91 1017.0
20260507171607 52 63 0.0 2.0 0.00 0.00 0.00 92 1017.0
20260507171049 51 63 0.0 2.0 0.00 0.00 0.00 92 1017.1
20260507170651 51 63 0.0 2.0 0.00 0.00 0.00 91 1017.1
20260507170038 51 61 0.0 2.0 0.00 0.00 0.00 91 1017.1
20260507165536 51 61 0.0 2.0 0.00 0.00 0.00 91 1017.2
20260507165035 51 61 0.0 2.0 0.00 0.00 0.00 91 1017.2
20260507164546 51 61 1.0 2.0 0.00 0.00 0.00 91 1017.2
20260507164035 51 60 0.0 2.0 0.00 0.00 0.00 91 1017.2
20260507163534 51 60 0.0 2.0 0.00 0.00 0.00 91 1017.1
20260507163033 51 258 0.0 2.0 0.00 0.00 0.00 91 1017.1
20260507162534 51 258 0.0 2.0 0.00 0.00 0.00 91 1017.1
20260507162134 51 258 0.0 2.0 0.00 0.00 0.00 92 1017.1
20260507161540 51 258 0.0 2.0 0.00 0.00 0.00 92 1017.1
20260507161033 51 258 0.0 2.0 0.00 0.00 0.00 92 1017.1
20260507160504 51 259 0.0 2.0 0.00 0.00 0.00 92 1017.2
20260507160002 51 259 0.0 2.0 0.00 0.00 0.00 92 1017.1
20260507155501 51 256 0.0 2.0 0.00 0.00 0.00 91 1017.1
20260507155004 51 256 0.0 3.0 0.00 0.00 0.00 91 1017.1
20260507154601 51 256 0.0 3.0 0.00 0.00 0.00 91 1017.1
20260507154059 51 256 1.0 2.0 0.00 0.00 0.00 91 1017.1
20260507153601 51 260 0.0 2.0 0.00 0.00 0.00 91 1017.1
20260507153100 51 261 0.0 0.0 0.00 0.00 0.00 91 1017.0
20260507152600 51 261 0.0 0.0 0.00 0.00 0.00 91 1017.0
20260507152100 51 261 0.0 0.0 0.00 0.00 0.00 91 1017.1
20260507151558 51 261 0.0 0.0 0.00 0.00 0.00 91 1017.0
20260507151057 51 261 0.0 0.0 0.00 0.00 0.00 91 1017.1
20260507150557 51 261 0.0 0.0 0.00 0.00 0.00 91 1017.2
20260507150103 51 261 0.0 0.0 0.00 0.00 0.00 91 1017.3
20260507145555 51 261 0.0 0.0 0.00 0.00 0.00 91 1017.2
20260507145054 51 261 0.0 0.0 0.00 0.00 0.00 91 1017.2
20260507144554 51 261 0.0 0.0 0.00 0.00 0.00 91 1017.2
20260507144053 51 261 0.0 0.0 0.00 0.00 0.00 91 1017.2
20260507143555 51 261 0.0 0.0 0.00 0.00 0.00 91 1017.2
20260507143100 51 261 0.0 0.0 0.00 0.00 0.00 91 1017.3
20260507142552 51 261 0.0 0.0 0.00 0.00 0.00 91 1017.2
20260507142051 51 261 0.0 0.0 0.00 0.00 0.00 90 1017.2
20260507141556 51 261 0.0 0.0 0.00 0.00 0.00 90 1017.2
20260507141051 51 261 0.0 0.0 0.00 0.00 0.00 90 1017.1
20260507140551 51 261 0.0 0.0 0.00 0.00 0.00 90 1017.0
20260507140049 51 261 0.0 0.0 0.00 0.00 0.00 90 1017.0
20260507135549 51 261 0.0 0.0 0.00 0.00 0.00 90 1017.0
20260507135048 51 261 0.0 0.0 0.00 0.00 0.00 90 1017.0
20260507134554 51 261 0.0 0.0 0.00 0.00 0.00 89 1017.0
20260507134047 51 261 0.0 0.0 0.00 0.00 0.00 89 1017.0
20260507133547 51 261 0.0 1.0 0.00 0.00 0.00 89 1017.0
20260507133047 51 261 0.0 1.0 0.00 0.00 0.00 89 1017.0
20260507132546 51 261 0.0 0.0 0.00 0.00 0.00 89 1017.0
20260507132048 51 261 0.0 0.0 0.00 0.00 0.00 89 1016.9
20260507131546 51 261 0.0 0.0 0.00 0.00 0.00 88 1016.9
20260507131049 52 261 0.0 0.0 0.00 0.00 0.00 88 1016.9
20260507130550 52 261 0.0 0.0 0.00 0.00 0.00 88 1016.9
20260507130045 52 261 0.0 0.0 0.00 0.00 0.00 88 1016.9
20260507125546 52 261 0.0 0.0 0.00 0.00 0.00 88 1016.9
20260507125044 52 261 0.0 0.0 0.00 0.00 0.00 88 1016.9
20260507124545 52 261 0.0 0.0 0.00 0.00 0.00 88 1016.8
20260507124047 52 261 0.0 0.0 0.00 0.00 0.00 88 1016.9
20260507123544 52 262 0.0 0.0 0.00 0.00 0.00 88 1016.8
20260507123044 52 262 0.0 0.0 0.00 0.00 0.00 88 1016.8
20260507122547 52 262 0.0 0.0 0.00 0.00 0.00 88 1016.8
20260507122046 52 262 0.0 0.0 0.00 0.00 0.00 88 1016.8
20260507121543 52 262 0.0 0.0 0.00 0.00 0.00 88 1016.8
20260507121047 52 262 0.0 0.0 0.00 0.00 0.00 88 1016.8
20260507120542 52 262 0.0 0.0 0.00 0.00 0.00 88 1016.9
20260507120042 52 262 0.0 0.0 0.00 0.00 0.00 88 1016.9
20260507115543 52 262 0.0 0.0 0.00 0.00 0.00 88 1017.0
20260507115042 52 262 0.0 0.0 0.00 0.00 0.00 88 1017.1
20260507114542 52 262 0.0 0.0 0.00 0.00 0.00 88 1017.1
20260507114043 52 186 0.0 0.0 0.00 0.00 0.00 88 1017.2
20260507113542 52 186 0.0 0.0 0.00 0.00 0.00 88 1017.2
20260507113040 52 186 0.0 0.0 0.00 0.00 0.00 88 1017.1
20260507112540 52 186 0.0 0.0 0.00 0.00 0.00 87 1017.0
20260507112040 52 186 0.0 0.0 0.00 0.00 0.00 87 1017.1
20260507111540 52 186 0.0 0.0 0.00 0.00 0.00 87 1017.1
20260507111039 52 186 0.0 0.0 0.00 0.00 0.00 87 1017.1
20260507110539 52 186 0.0 0.0 0.00 0.00 0.00 87 1017.0
20260507110048 52 186 0.0 1.0 0.00 0.00 0.00 87 1017.0
20260507105538 52 186 0.0 1.0 0.00 0.00 0.00 87 1017.0
20260507105038 52 186 0.0 2.0 0.00 0.00 0.00 87 1017.0
20260507104538 52 186 0.0 2.0 0.00 0.00 0.00 87 1017.0
20260507104038 52 186 0.0 2.0 0.00 0.00 0.00 87 1017.0
20260507103537 52 186 0.0 3.0 0.00 0.00 0.00 87 1017.0
20260507103037 52 186 0.0 3.0 0.00 0.00 0.00 87 1017.0
20260507102536 52 67 0.0 2.0 0.00 0.00 0.00 87 1017.1
20260507102036 52 65 0.0 2.0 0.00 0.00 0.00 87 1017.0
20260507101542 52 64 0.0 2.0 0.00 0.00 0.00 87 1016.9
20260507101035 52 64 0.0 0.0 0.00 0.00 0.00 87 1016.9
20260507100535 52 64 0.0 0.0 0.00 0.00 0.00 87 1016.8
20260507100009 52 64 0.0 0.0 0.00 0.00 0.00 87 1016.7
20260507095509 52 64 0.0 0.0 0.00 0.00 0.00 87 1016.8
20260507095009 52 64 0.0 0.0 0.00 0.00 0.00 87 1016.8
20260507094508 52 64 0.0 0.0 0.00 0.00 0.00 87 1016.9
20260507094007 52 64 0.0 1.0 0.00 0.00 0.00 87 1016.9
20260507093508 52 64 0.0 1.0 0.00 0.00 0.00 86 1017.0
20260507093007 52 64 0.0 1.0 0.00 0.00 0.00 87 1017.0
20260507092507 53 64 0.0 1.0 0.00 0.00 0.00 87 1016.9
20260507092006 52 64 0.0 1.0 0.00 0.00 0.00 86 1017.0
20260507091506 52 64 0.0 0.0 0.00 0.00 0.00 86 1017.0
20260507091008 52 64 0.0 1.0 0.00 0.00 0.00 86 1017.0
20260507090507 52 64 0.0 1.0 0.00 0.00 0.00 86 1016.9
20260507090006 52 64 0.0 1.0 0.00 0.00 0.00 87 1016.9
20260507085504 53 64 0.0 1.0 0.00 0.00 0.00 86 1016.9
20260507085004 52 64 0.0 1.0 0.00 0.00 0.00 86 1016.9
20260507084504 52 64 0.0 1.0 0.00 0.00 0.00 86 1016.9
20260507084005 53 64 0.0 0.0 0.00 0.00 0.00 86 1016.8
20260507083503 53 64 0.0 0.0 0.00 0.00 0.00 86 1016.9
20260507083004 53 64 0.0 0.0 0.00 0.00 0.00 86 1016.8
20260507082503 53 64 0.0 0.0 0.00 0.00 0.00 86 1016.8
20260507082002 52 64 0.0 0.0 0.00 0.00 0.00 86 1016.7
20260507081506 53 64 0.0 0.0 0.00 0.00 0.00 86 1016.7
20260507081013 53 64 0.0 0.0 0.00 0.00 0.00 86 1016.7
20260507080516 53 64 0.0 0.0 0.00 0.00 0.00 86 1016.7
20260507080012 53 64 0.0 0.0 0.00 0.00 0.00 86 1016.6
20260507075511 53 64 0.0 0.0 0.00 0.00 0.00 86 1016.6
20260507075012 53 64 0.0 0.0 0.00 0.00 0.00 86 1016.6
20260507074524 53 64 0.0 0.0 0.00 0.00 0.00 86 1016.6
20260507074011 53 64 0.0 0.0 0.00 0.00 0.00 86 1016.6
20260507073510 53 64 0.0 0.0 0.00 0.00 0.00 86 1016.6
20260507073010 53 64 0.0 0.0 0.00 0.00 0.00 86 1016.5
20260507072510 53 64 0.0 0.0 0.00 0.00 0.00 86 1016.5
20260507072011 53 0.0 0.0 0.00 0.00 0.00 86 1016.4
20260507071506 53 64 0.0 0.0 0.00 0.00 0.00 86 1016.5
20260507071123 53 64 0.0 0.0 0.00 0.00 0.00 86 1016.4
20260507070545 53 64 0.0 0.0 0.00 0.00 0.00 86 1016.4
20260507070057 53 64 0.0 0.0 0.00 0.00 0.00 85 1016.4
20260507065543 53 64 0.0 0.0 0.00 0.00 0.00 85 1016.4
20260507065043 53 65 0.0 0.0 0.00 0.00 0.00 85 1016.4
20260507064543 53 65 0.0 0.0 0.00 0.00 0.00 85 1016.3
20260507064043 53 65 0.0 0.0 0.00 0.00 0.00 85 1016.3
20260507063543 53 65 0.0 0.0 0.00 0.00 0.00 85 1016.3
20260507063042 53 65 0.0 0.0 0.00 0.00 0.00 85 1016.3
20260507062544 53 65 0.0 0.0 0.00 0.00 0.00 85 1016.4
20260507062043 53 65 0.0 0.0 0.00 0.00 0.00 85 1016.3
20260507061543 53 65 0.0 0.0 0.00 0.00 0.00 85 1016.3
20260507061043 53 65 0.0 0.0 0.00 0.00 0.00 85 1016.3
20260507060547 53 65 0.0 0.0 0.00 0.00 0.00 85 1016.3
20260507060054 53 65 0.0 0.0 0.00 0.00 0.00 84 1016.3
20260507055544 53 65 0.0 0.0 0.00 0.00 0.00 85 1016.3
20260507055042 53 65 0.0 0.0 0.00 0.00 0.00 84 1016.3
20260507054546 53 65 0.0 0.0 0.00 0.00 0.00 85 1016.3
20260507054041 54 65 0.0 0.0 0.00 0.00 0.00 85 1016.3
20260507053542 54 65 0.0 0.0 0.00 0.00 0.00 84 1016.3
20260507053049 54 65 0.0 1.0 0.00 0.00 0.00 84 1016.2
20260507052543 53 65 0.0 1.0 0.00 0.00 0.00 84 1016.2
20260507052041 54 65 0.0 0.0 0.00 0.00 0.00 84 1016.2
20260507051543 54 65 0.0 0.0 0.00 0.00 0.00 84 1016.2
20260507051042 54 65 0.0 1.0 0.00 0.00 0.00 84 1016.2
20260507050539 54 65 0.0 2.0 0.00 0.00 0.00 84 1016.2
20260507050043 54 65 0.0 2.0 0.00 0.00 0.00 84 1016.2
20260507045541 54 61 0.0 1.0 0.00 0.00 0.00 84 1016.2
20260507045041 54 61 0.0 1.0 0.00 0.00 0.00 83 1016.2
20260507044539 54 61 0.0 1.0 0.00 0.00 0.00 83 1016.1
20260507044039 54 61 0.0 1.0 0.00 0.00 0.00 83 1016.2
20260507043539 54 61 0.0 1.0 0.00 0.00 0.00 83 1016.2
20260507043039 54 61 0.0 2.0 0.00 0.00 0.00 82 1016.2
20260507042538 54 61 0.0 2.0 0.00 0.00 0.00 82 1016.2
20260507042038 54 74 0.0 2.0 0.00 0.00 0.00 82 1016.2
20260507041539 54 73 0.0 1.0 0.00 0.00 0.00 82 1016.1
20260507041040 54 73 0.0 3.0 0.00 0.00 0.00 82 1016.0
20260507040638 54 73 0.0 3.0 0.00 0.00 0.00 82 1016.0
20260507040054 54 53 0.0 2.0 0.00 0.00 0.00 82 1016.0
20260507035554 54 52 0.0 2.0 0.00 0.00 0.00 82 1016.1
20260507035054 54 52 0.0 1.0 0.00 0.00 0.00 82 1016.1
20260507034655 54 52 0.0 1.0 0.00 0.00 0.00 82 1016.1
20260507034044 54 52 0.0 2.0 0.00 0.00 0.00 82 1016.2
20260507033542 54 52 0.0 2.0 0.00 0.00 0.00 82 1016.2
20260507033045 54 50 0.0 1.0 0.00 0.00 0.00 82 1016.2
20260507032542 54 50 0.0 1.0 0.00 0.00 0.00 82 1016.3
20260507032041 54 50 0.0 1.0 0.00 0.00 0.00 82 1016.2
20260507031541 54 50 0.0 1.0 0.00 0.00 0.00 82 1016.2
20260507031041 54 50 0.0 4.0 0.00 0.00 0.00 82 1016.2
20260507030541 54 50 1.0 4.0 0.00 0.00 0.00 82 1016.2
20260507030041 54 159 0.0 2.0 0.00 0.00 0.00 82 1016.2
20260507025543 55 159 0.0 2.0 0.00 0.00 0.00 82 1016.2
20260507025040 55 160 0.0 2.0 0.00 0.00 0.00 81 1016.2
20260507024552 55 160 0.0 2.0 0.00 0.00 0.00 81 1016.2
20260507024040 55 162 0.0 2.0 0.00 0.00 0.00 81 1016.2
20260507023540 55 132 0.0 4.0 0.00 0.00 0.00 81 1016.1
20260507023040 55 132 1.0 4.0 0.00 0.00 0.00 81 1016.1
20260507022541 55 106 0.0 3.0 0.00 0.00 0.00 81 1016.0
20260507022040 55 92 0.0 2.0 0.00 0.00 0.00 81 1016.0
20260507021546 55 93 0.0 3.0 0.00 0.00 0.00 80 1016.0
20260507021040 55 93 1.0 3.0 0.00 0.00 0.00 80 1016.1
20260507020542 55 15 0.0 4.0 0.00 0.00 0.00 80 1016.0
20260507020039 55 354 1.0 4.0 0.00 0.00 0.00 80 1016.0
20260507015538 56 111 0.0 4.0 0.00 0.00 0.00 80 1016.0
20260507015038 56 40 1.0 4.0 0.00 0.00 0.00 80 1016.0
20260507014543 55 218 0.0 3.0 0.00 0.00 0.00 80 1015.9
20260507014038 56 183 1.0 3.0 0.00 0.00 0.00 80 1015.8
20260507013537 56 165 0.0 3.0 0.00 0.00 0.00 79 1015.7
20260507013037 56 59 1.0 3.0 0.00 0.00 0.00 79 1015.8
20260507012540 56 164 0.0 3.0 0.00 0.00 0.00 79 1015.9
20260507012038 56 111 0.0 3.0 0.00 0.00 0.00 80 1015.9
20260507011543 55 123 0.0 3.0 0.00 0.00 0.00 80 1015.9
20260507011038 55 84 0.0 2.0 0.00 0.00 0.00 80 1016.0
20260507010538 55 83 0.0 3.0 0.00 0.00 0.00 81 1016.0
20260507010040 55 111 1.0 3.0 0.00 0.00 0.00 81 1016.0
20260507005536 55 171 0.0 2.0 0.00 0.00 0.00 82 1016.1
20260507005038 55 171 0.0 2.0 0.00 0.00 0.00 82 1016.1
20260507004535 55 171 0.0 3.0 0.00 0.00 0.00 81 1016.2
20260507004035 55 101 0.0 3.0 0.00 0.00 0.00 81 1016.1
20260507003534 55 75 0.0 3.0 0.00 0.00 0.00 81 1016.1
20260507003039 55 48 1.0 3.0 0.00 0.00 0.00 81 1016.1
20260507002535 55 119 0.0 2.0 0.00 0.00 0.00 81 1016.1
20260507002034 55 119 0.0 2.0 0.00 0.00 0.00 81 1016.1
20260507001542 55 111 0.0 2.0 0.00 0.00 0.00 81 1016.1
20260507001034 55 88 0.0 2.0 0.00 0.00 0.00 81 1016.1
20260507000633 56 88 0.0 2.0 0.00 0.00 0.00 80 1016.1
20260507000036 56 86 0.0 3.0 0.00 0.00 0.00 81 1016.0
20260506235534 56 97 0.0 3.0 0.00 0.00 0.00 80 1016.1
20260506235033 56 30 1.0 3.0 0.00 0.00 0.00 79 1016.0
20260506234533 56 271 0.0 4.0 0.00 0.00 0.00 79 1015.9
20260506234033 56 134 0.0 2.0 0.00 0.00 0.00 79 1015.9
20260506233533 56 156 1.0 3.0 0.00 0.00 0.00 80 1015.9
20260506233033 56 36 0.0 3.0 0.00 0.00 0.00 79 1015.9
20260506232532 56 186 0.0 4.0 0.00 0.00 0.00 80 1015.9
20260506232033 56 170 0.0 4.0 0.00 0.00 0.00 80 1016.0
20260506231536 56 94 1.0 3.0 0.00 0.00 0.00 80 1016.0
20260506231032 56 127 0.0 2.0 0.00 0.00 0.00 80 1016.0
20260506230632 57 69 0.0 4.0 0.00 0.00 0.00 80 1016.0
20260506230051 56 16 1.0 5.0 0.00 0.00 0.00 80 1015.9
20260506225549 56 129 1.0 5.0 0.00 0.00 0.00 79 1016.0
20260506225053 57 21 1.0 5.0 0.00 0.00 0.00 79 1016.0
20260506224552 57 319 1.0 4.0 0.00 0.00 0.00 80 1015.9
20260506224048 57 155 0.0 9.0 0.00 0.00 0.00 79 1016.0
20260506223548 57 123 2.0 9.0 0.00 0.00 0.00 79 1015.9
20260506223052 57 137 2.0 7.0 0.00 0.00 0.00 78 1016.0
20260506222548 57 50 2.0 4.0 0.00 0.00 0.00 78 1015.9
20260506222048 57 149 1.0 4.0 0.00 0.00 0.00 79 1015.9
20260506221550 57 132 0.0 4.0 0.00 0.00 0.00 80 1016.0
20260506221048 56 45 1.0 4.0 0.00 0.00 0.00 80 1016.0
20260506220647 56 152 1.0 4.0 0.00 0.00 0.00 79 1016.1
20260506220052 56 106 1.0 6.0 0.00 0.00 0.00 79 1016.1
20260506215551 57 174 1.0 9.0 0.00 0.00 0.00 79 1016.1
20260506215053 57 186 1.0 5.0 0.00 0.00 0.00 78 1016.1